Regional Weather Roundup
Issued by NWS Little Rock, AR

Home | Current Version | Previous Version | Graphics & Text | Print | Product List | Glossary On
Versions: 1 2 3 4 5 6 7 8 9 10 11 12 13 14 15 16 17 18 19 20 21 22 23 24 25 26 27
000
ASUS44 KLZK 200305
RWRLZK

WEATHER ROUNDUP FOR ARKANSAS
NATIONAL WEATHER SERVICE LITTLE ROCK AR
1000 PM CDT SAT APR 19 2014

NOTE: "FAIR" INDICATES FEW OR NO CLOUDS BELOW 12,000 FEET WITH NO
SIGNIFICANT WEATHER AND/OR OBSTRUCTIONS TO VISIBILITY.

ARZ001-003-010-029-200400-
NORTHWEST ARKANSAS

CITY           SKY/WX    TMP DP  RH WIND       PRES   REMARKS
FAYETTEVILLE   CLEAR     55  48  77 CALM      30.14S
FORT SMITH     PTCLDY    68  51  54 CALM      30.11R
HARRISON       CLEAR     62  46  55 S5        30.16R
BENTONVILLE    CLEAR     63  45  51 S6        30.15R
ROGERS         CLEAR     64  47  53 SE6       30.15R
SILOAM SPGS    PTCLDY    63  45  51 SE6       30.14S
HIGHFILL       CLEAR     59  47  64 SE7       30.13R
$$

ARZ004-005-016-200400-
NORTH CENTRAL ARKANSAS

CITY           SKY/WX    TMP DP  RH WIND       PRES   REMARKS
BATESVILLE     CLEAR     64  45  48 SE5       30.15F
FLIPPIN        CLEAR     64  43  45 E5        30.15R
MTN HOME       CLEAR     65  42  43 SE6       30.15R
$$

ARZ040-041-200400-
WEST CENTRAL ARKANSAS

CITY           SKY/WX    TMP DP  RH WIND       PRES   REMARKS
MENA           PTCLDY    59  50  72 CALM      30.15R
MOUNT IDA      CLEAR     59  52  77 CALM      30.13R
$$

ARZ009-017-025-026-028-200400-
NORTHEAST ARKANSAS

CITY           SKY/WX    TMP DP  RH WIND       PRES   REMARKS
CORNING        FAIR      59  50  72 CALM      30.18R
JONESBORO      CLEAR     60  47  61 CALM      30.16S
NEWPORT        CLEAR     63  54  72 CALM      30.17S
WALNUT RIDGE   CLEAR     63  50  63 CALM      30.18R
BLYTHEVILLE    CLEAR     63  51  65 CALM      30.16S
$$

ARZ022-023-033-042-044-200400-
CENTRAL ARKANSAS

CITY           SKY/WX    TMP DP  RH WIND       PRES   REMARKS
LITTLE ROCK    PTCLDY    65  50  58 CALM      30.16R
N LITTLE ROCK  PTCLDY    67  52  59 E6        30.16R
JACKSONVILLE   CLEAR     58  52  80 CALM      30.16R
SEARCY         CLEAR     59  50  72 CALM      30.17S
HOT SPRINGS    CLEAR     62  52  69 CALM      30.15R
RUSSELLVILLE   CLEAR     61  52  72 CALM      30.13S
CLINTON        FAIR      57  54  88 CALM      30.17R
$$

ARZ036-200400-
EAST ARKANSAS

CITY           SKY/WX    TMP DP  RH WIND       PRES   REMARKS
WEST MEMPHIS   CLEAR     61  49  64 CALM      30.15R
$$

ARZ050-053-066-070-073-200400-
SOUTHWEST ARKANSAS

CITY           SKY/WX    TMP DP  RH WIND       PRES   REMARKS
ARKADELPHIA    FAIR      62  61  97 CALM      30.14R
CAMDEN         CLEAR     57  54  88 MISG      30.13S
TEXARKANA      CLEAR     64  52  64 SE3       30.13R
EL DORADO      CLEAR     59  55  87 CALM      30.14R
DE QUEEN       CLEAR     56  55  97 CALM      30.12R
$$

ARZ056-057-069-200400-
SOUTHEAST ARKANSAS

CITY           SKY/WX    TMP DP  RH WIND       PRES   REMARKS
PINE BLUFF     CLEAR     64  53  67 CALM      30.15R
STUTTGART      CLEAR     66  52  59 CALM      30.16S
MONTICELLO     CLEAR     60  53  77 CALM      30.15R

$$





USA.gov is the U.S. government's official web portal to all federal, state and local government web resources and services.